User: anonymous   Login
Location: Harrison
(47.4490°N, 116.7734°W)
Time: 16:03:23
(UTC+00:00)
Language:

ITUPSAT 1 - Orbit

View from above orbital plane
View from above orbital plane
View from above satellite
View from above satellite

Ground track
Ground track

The orbit data is extracted from the following two-line orbital elements,

1 35935U 09051E   24252.43170707  .00004283  00000-0  93869-3 0  9999
2 35935  98.4598 137.9161 0009263  82.0872 278.1377 14.58157354794429
Epoch (UTC): 08 September 2024 10:21:39
Eccentricity: 0.0009263
inclination: 98.4598°
perigee height: 692 km
apogee height: 705 km
right ascension of ascending node: 137.9161°
argument of perigee: 82.0872°
revolutions per day: 14.58157354
mean anomaly at epoch: 278.1377°
orbit number at epoch: 79442

The dashed part of the orbit path shows where the satellite is in the earth's shadow,  

DLR